Time,TemperatureF,DewpointF,PressureIn,WindDirection,WindDirectionDegrees,WindSpeedMPH,WindSpeedGustMPH,Humidity,HourlyPrecipIn,Conditions,Clouds,dailyrainin,SoftwareType,DateUTC
2013-06-17 00:01:00,73.5,72.0,30.01,NNW,338,0.0,0.0,95,0.00,,,0.00,WeatherCatV1.02B3,2013-06-17 05:01:00,
2013-06-17 00:06:00,73.5,72.0,30.01,NNW,338,0.0,0.0,95,0.00,,,0.00,WeatherCatV1.02B3,2013-06-17 05:06:00,
2013-06-17 00:11:00,73.5,72.0,30.01,NNW,338,0.0,0.0,95,0.00,,,0.00,WeatherCatV1.02B3,2013-06-17 05:11:00,
2013-06-17 00:16:00,73.4,71.9,30.01,NNW,338,0.0,0.0,95,0.00,,,0.00,WeatherCatV1.02B3,2013-06-17 05:16:00,
2013-06-17 00:21:00,73.4,71.9,30.01,NNW,338,0.0,0.0,95,0.00,,,0.00,WeatherCatV1.02B3,2013-06-17 05:21:00,
2013-06-17 00:26:00,73.3,71.8,30.01,NNW,338,0.0,0.0,95,0.00,,,0.00,WeatherCatV1.02B3,2013-06-17 05:26:00,
2013-06-17 00:31:00,73.3,71.8,30.01,NNW,338,0.0,0.0,95,0.00,,,0.00,WeatherCatV1.02B3,2013-06-17 05:31:00,
2013-06-17 00:36:00,73.2,71.7,30.00,NNW,338,0.0,0.0,95,0.00,,,0.00,WeatherCatV1.02B3,2013-06-17 05:36:00,
2013-06-17 00:41:00,73.2,71.7,30.00,NNW,338,0.0,0.0,95,0.00,,,0.00,WeatherCatV1.02B3,2013-06-17 05:41:00,
2013-06-17 00:46:00,73.2,71.7,30.00,NNW,338,0.0,0.0,95,0.00,,,0.00,WeatherCatV1.02B3,2013-06-17 05:46:00,
2013-06-17 00:51:00,73.1,71.6,30.01,NNW,338,0.0,0.0,95,0.00,,,0.00,WeatherCatV1.02B3,2013-06-17 05:51:00,
2013-06-17 00:56:00,73.1,71.6,30.01,NNW,338,0.0,0.0,95,0.00,,,0.00,WeatherCatV1.02B3,2013-06-17 05:56:00,
2013-06-17 01:01:00,73.0,71.5,30.01,NNW,338,0.0,0.0,95,0.00,,,0.00,WeatherCatV1.02B3,2013-06-17 06:01:00,
2013-06-17 01:06:00,73.0,71.5,30.00,NNW,338,0.0,0.0,95,0.00,,,0.00,WeatherCatV1.02B3,2013-06-17 06:06:00,
2013-06-17 01:11:00,73.0,71.5,30.00,NNW,338,0.0,0.0,95,0.00,,,0.00,WeatherCatV1.02B3,2013-06-17 06:11:00,
2013-06-17 01:16:00,73.1,71.6,30.00,NNW,338,0.0,0.0,95,0.00,,,0.00,WeatherCatV1.02B3,2013-06-17 06:16:00,
2013-06-17 01:21:00,73.1,71.6,30.00,NNW,338,0.0,0.0,95,0.00,,,0.00,WeatherCatV1.02B3,2013-06-17 06:21:00,
2013-06-17 01:26:00,73.1,71.6,30.00,NNW,338,0.0,0.0,95,0.00,,,0.00,WeatherCatV1.02B3,2013-06-17 06:26:00,
2013-06-17 01:31:00,73.2,71.7,30.00,NNW,338,0.0,0.0,95,0.00,,,0.00,WeatherCatV1.02B3,2013-06-17 06:31:00,
2013-06-17 01:36:00,73.3,71.8,30.00,NNW,338,0.0,0.0,95,0.00,,,0.00,WeatherCatV1.02B3,2013-06-17 06:36:00,
2013-06-17 01:38:00,73.3,71.8,30.00,NNW,338,0.0,0.0,95,0.00,,,0.00,WeatherCatV1.02B3,2013-06-17 06:38:00,
2013-06-17 01:43:00,73.4,71.9,30.00,NNW,338,0.0,0.0,95,0.00,,,0.00,WeatherCatV1.02B3,2013-06-17 06:43:00,
2013-06-17 01:48:00,73.4,71.9,30.00,NNW,338,0.0,0.0,95,0.00,,,0.00,WeatherCatV1.02B3,2013-06-17 06:48:00,
2013-06-17 01:53:00,73.5,72.0,30.00,NNW,338,0.0,0.0,95,0.00,,,0.00,WeatherCatV1.02B3,2013-06-17 06:53:00,
2013-06-17 01:58:00,73.4,71.9,30.00,NNW,338,0.0,0.0,95,0.00,,,0.00,WeatherCatV1.02B3,2013-06-17 06:58:00,
2013-06-17 02:03:00,73.4,71.9,30.00,NNW,338,0.0,0.0,95,0.00,,,0.00,WeatherCatV1.02B3,2013-06-17 07:03:00,
2013-06-17 02:08:00,73.4,71.9,30.00,NNW,338,0.0,0.0,95,0.00,,,0.00,WeatherCatV1.02B3,2013-06-17 07:08:00,
2013-06-17 02:13:00,73.4,71.9,30.00,NNW,338,0.0,0.0,95,0.00,,,0.00,WeatherCatV1.02B3,2013-06-17 07:13:00,
2013-06-17 02:18:00,73.4,71.9,30.00,NNW,338,0.0,0.0,95,0.00,,,0.00,WeatherCatV1.02B3,2013-06-17 07:18:00,
2013-06-17 02:23:00,73.3,71.8,30.00,NNW,338,0.0,0.0,95,0.00,,,0.00,WeatherCatV1.02B3,2013-06-17 07:23:00,
2013-06-17 02:28:00,73.3,72.1,30.00,NNW,338,0.0,0.0,96,0.00,,,0.00,WeatherCatV1.02B3,2013-06-17 07:28:00,
2013-06-17 02:33:00,73.3,72.1,30.00,NNW,338,0.0,0.0,96,0.00,,,0.00,WeatherCatV1.02B3,2013-06-17 07:33:00,
2013-06-17 02:38:00,73.3,72.1,30.01,NNW,338,0.0,0.0,96,0.00,,,0.00,WeatherCatV1.02B3,2013-06-17 07:38:00,
2013-06-17 02:43:00,73.3,72.1,30.01,NNW,338,0.0,0.0,96,0.00,,,0.00,WeatherCatV1.02B3,2013-06-17 07:43:00,
2013-06-17 02:48:00,73.3,72.1,30.01,NNW,338,0.0,0.0,96,0.00,,,0.00,WeatherCatV1.02B3,2013-06-17 07:48:00,
2013-06-17 02:53:00,73.3,72.1,30.01,NNW,338,0.0,0.0,96,0.00,,,0.00,WeatherCatV1.02B3,2013-06-17 07:53:00,
2013-06-17 02:58:00,73.4,72.2,30.00,NNW,338,0.0,0.0,96,0.00,,,0.00,WeatherCatV1.02B3,2013-06-17 07:58:00,
2013-06-17 03:03:00,73.4,72.2,30.00,NNW,338,0.0,0.0,96,0.00,,,0.00,WeatherCatV1.02B3,2013-06-17 08:03:00,
2013-06-17 03:08:00,73.4,72.2,30.00,NNW,338,0.0,1.0,96,0.00,,,0.00,WeatherCatV1.02B3,2013-06-17 08:08:00,
2013-06-17 03:13:00,73.4,72.2,30.00,NNW,338,0.0,0.0,96,0.00,,,0.00,WeatherCatV1.02B3,2013-06-17 08:13:00,
2013-06-17 03:18:00,73.4,72.2,30.00,NNW,338,0.0,0.0,96,0.00,,,0.00,WeatherCatV1.02B3,2013-06-17 08:18:00,
2013-06-17 03:23:00,73.4,72.2,29.99,NNW,338,0.0,1.0,96,0.00,,,0.00,WeatherCatV1.02B3,2013-06-17 08:23:00,
2013-06-17 03:28:00,73.3,72.1,29.99,NNW,338,0.0,0.0,96,0.00,,,0.00,WeatherCatV1.02B3,2013-06-17 08:28:00,
2013-06-17 03:33:00,73.3,72.1,29.99,NNW,338,0.0,0.0,96,0.00,,,0.00,WeatherCatV1.02B3,2013-06-17 08:33:00,
2013-06-17 03:38:00,73.2,72.0,29.99,NNW,338,0.0,0.0,96,0.00,,,0.00,WeatherCatV1.02B3,2013-06-17 08:38:00,
2013-06-17 03:43:00,73.2,72.0,29.99,NNW,338,0.0,0.0,96,0.00,,,0.00,WeatherCatV1.02B3,2013-06-17 08:43:00,
2013-06-17 03:48:00,73.1,71.9,29.99,NNW,338,0.0,0.0,96,0.00,,,0.00,WeatherCatV1.02B3,2013-06-17 08:48:00,
2013-06-17 03:53:00,73.1,71.9,29.98,NNW,338,0.0,0.0,96,0.00,,,0.00,WeatherCatV1.02B3,2013-06-17 08:53:00,
2013-06-17 03:58:00,73.1,71.9,29.98,NNW,338,0.0,0.0,96,0.00,,,0.00,WeatherCatV1.02B3,2013-06-17 08:58:00,
2013-06-17 04:03:00,73.1,71.9,29.98,NNW,338,0.0,0.0,96,0.00,,,0.00,WeatherCatV1.02B3,2013-06-17 09:03:00,
2013-06-17 04:08:00,73.0,71.8,29.98,NNW,338,0.0,0.0,96,0.00,,,0.00,WeatherCatV1.02B3,2013-06-17 09:08:00,
2013-06-17 04:13:00,72.9,71.7,29.98,NNW,338,0.0,0.0,96,0.00,,,0.00,WeatherCatV1.02B3,2013-06-17 09:13:00,
2013-06-17 04:18:00,72.9,71.7,29.98,NNW,338,0.0,0.0,96,0.00,,,0.00,WeatherCatV1.02B3,2013-06-17 09:18:00,
2013-06-17 04:23:00,72.9,71.7,29.98,NNW,338,0.0,0.0,96,0.00,,,0.00,WeatherCatV1.02B3,2013-06-17 09:23:00,
2013-06-17 04:28:00,72.9,71.7,29.98,NNW,338,0.0,0.0,96,0.00,,,0.00,WeatherCatV1.02B3,2013-06-17 09:28:00,
2013-06-17 04:33:00,72.9,71.7,29.98,NNW,338,0.0,1.0,96,0.00,,,0.00,WeatherCatV1.02B3,2013-06-17 09:33:00,
2013-06-17 04:38:00,73.1,71.9,29.98,West,267,0.0,1.0,96,0.00,,,0.00,WeatherCatV1.02B3,2013-06-17 09:38:00,
2013-06-17 04:43:00,73.2,72.0,29.98,West,261,0.0,0.0,96,0.00,,,0.00,WeatherCatV1.02B3,2013-06-17 09:43:00,
2013-06-17 04:48:00,73.3,72.1,29.99,West,261,0.0,0.0,96,0.00,,,0.00,WeatherCatV1.02B3,2013-06-17 09:48:00,
2013-06-17 04:53:00,73.3,72.1,29.98,West,261,0.0,0.0,96,0.00,,,0.00,WeatherCatV1.02B3,2013-06-17 09:53:00,
2013-06-17 04:58:00,73.3,72.1,29.98,West,261,0.0,0.0,96,0.00,,,0.00,WeatherCatV1.02B3,2013-06-17 09:58:00,
2013-06-17 05:03:00,73.3,72.1,29.98,West,261,0.0,1.0,96,0.00,,,0.00,WeatherCatV1.02B3,2013-06-17 10:03:00,
2013-06-17 05:08:00,73.3,72.1,29.99,West,261,0.0,0.0,96,0.00,,,0.00,WeatherCatV1.02B3,2013-06-17 10:08:00,
2013-06-17 05:13:00,73.3,72.1,29.99,West,261,0.0,0.0,96,0.00,,,0.00,WeatherCatV1.02B3,2013-06-17 10:13:00,
2013-06-17 05:18:00,73.4,72.2,29.99,West,261,0.0,0.0,96,0.00,,,0.00,WeatherCatV1.02B3,2013-06-17 10:18:00,
2013-06-17 05:23:00,73.4,72.2,29.99,West,261,0.0,0.0,96,0.00,,,0.00,WeatherCatV1.02B3,2013-06-17 10:23:00,
2013-06-17 05:28:00,73.4,72.2,29.98,West,261,0.0,0.0,96,0.00,,,0.00,WeatherCatV1.02B3,2013-06-17 10:28:00,
2013-06-17 05:33:00,73.4,72.2,29.99,West,261,0.0,1.0,96,0.00,,,0.00,WeatherCatV1.02B3,2013-06-17 10:33:00,
2013-06-17 05:38:00,73.5,72.3,29.99,West,261,0.0,0.0,96,0.00,,,0.00,WeatherCatV1.02B3,2013-06-17 10:38:00,
2013-06-17 05:43:00,73.5,72.3,29.99,West,261,0.0,0.0,96,0.00,,,0.00,WeatherCatV1.02B3,2013-06-17 10:43:00,
2013-06-17 05:48:00,73.5,72.3,29.98,West,261,0.0,0.0,96,0.00,,,0.00,WeatherCatV1.02B3,2013-06-17 10:48:00,
2013-06-17 05:53:00,73.5,72.3,29.98,West,261,0.0,0.0,96,0.00,,,0.00,WeatherCatV1.02B3,2013-06-17 10:53:00,
2013-06-17 05:58:00,73.5,72.3,29.98,West,261,0.0,0.0,96,0.00,,,0.00,WeatherCatV1.02B3,2013-06-17 10:58:00,
2013-06-17 06:03:00,73.4,72.2,29.99,West,261,0.0,0.0,96,0.00,,,0.00,WeatherCatV1.02B3,2013-06-17 11:03:00,
2013-06-17 06:08:00,73.4,72.2,29.99,West,261,0.0,0.0,96,0.00,,,0.00,WeatherCatV1.02B3,2013-06-17 11:08:00,
2013-06-17 06:13:00,73.5,72.3,29.99,South,169,0.0,0.0,96,0.00,,,0.00,WeatherCatV1.02B3,2013-06-17 11:13:00,
2013-06-17 06:18:00,73.5,72.3,29.99,South,169,0.0,0.0,96,0.00,,,0.00,WeatherCatV1.02B3,2013-06-17 11:18:00,
2013-06-17 06:23:00,73.6,72.4,29.99,South,171,0.0,1.0,96,0.00,,,0.00,WeatherCatV1.02B3,2013-06-17 11:23:00,
2013-06-17 06:28:00,73.7,72.5,29.99,South,171,0.0,0.0,96,0.00,,,0.00,WeatherCatV1.02B3,2013-06-17 11:28:00,
2013-06-17 06:33:00,73.7,72.5,29.98,South,175,0.0,0.0,96,0.00,,,0.00,WeatherCatV1.02B3,2013-06-17 11:33:00,
2013-06-17 06:38:00,73.8,72.6,29.98,South,175,0.0,1.0,96,0.00,,,0.00,WeatherCatV1.02B3,2013-06-17 11:38:00,
2013-06-17 06:43:00,73.9,72.7,29.98,South,184,0.0,0.0,96,0.00,,,0.00,WeatherCatV1.02B3,2013-06-17 11:43:00,
2013-06-17 06:48:00,74.0,72.8,29.98,South,184,0.0,2.0,96,0.00,,,0.00,WeatherCatV1.02B3,2013-06-17 11:48:00,
2013-06-17 06:53:00,74.2,73.0,29.98,South,184,0.0,0.0,96,0.00,,,0.00,WeatherCatV1.02B3,2013-06-17 11:53:00,
2013-06-17 06:58:00,74.3,73.1,29.98,WSW,240,0.0,1.0,96,0.00,,,0.00,WeatherCatV1.02B3,2013-06-17 11:58:00,
2013-06-17 07:03:00,74.4,73.2,29.98,WSW,240,0.0,0.0,96,0.00,,,0.00,WeatherCatV1.02B3,2013-06-17 12:03:00,
2013-06-17 07:08:00,74.4,73.2,29.99,WNW,286,0.0,1.0,96,0.00,,,0.00,WeatherCatV1.02B3,2013-06-17 12:08:00,
2013-06-17 07:13:00,74.4,73.2,29.99,WNW,286,0.0,0.0,96,0.00,,,0.00,WeatherCatV1.02B3,2013-06-17 12:13:00,
2013-06-17 07:18:00,74.6,73.4,29.99,WNW,286,0.0,0.0,96,0.00,,,0.00,WeatherCatV1.02B3,2013-06-17 12:18:00,
2013-06-17 07:23:00,74.7,73.5,29.99,WNW,286,1.0,1.0,96,0.00,,,0.00,WeatherCatV1.02B3,2013-06-17 12:23:00,
2013-06-17 07:28:00,74.8,73.6,29.99,WNW,286,0.0,0.0,96,0.00,,,0.00,WeatherCatV1.02B3,2013-06-17 12:28:00,
2013-06-17 07:33:00,74.9,73.4,29.99,WNW,286,0.0,0.0,95,0.00,,,0.00,WeatherCatV1.02B3,2013-06-17 12:33:00,
2013-06-17 07:38:00,75.2,73.7,30.00,WNW,288,0.0,1.0,95,0.00,,,0.00,WeatherCatV1.02B3,2013-06-17 12:38:00,
2013-06-17 07:43:00,75.5,74.0,30.00,WNW,288,0.0,1.0,95,0.00,,,0.00,WeatherCatV1.02B3,2013-06-17 12:43:00,
2013-06-17 07:48:00,75.7,74.2,29.99,WNW,288,0.0,1.0,95,0.00,,,0.00,WeatherCatV1.02B3,2013-06-17 12:48:00,
2013-06-17 07:53:00,76.0,74.5,29.99,WNW,288,0.0,0.0,95,0.00,,,0.00,WeatherCatV1.02B3,2013-06-17 12:53:00,
2013-06-17 07:58:00,76.3,74.8,30.00,WNW,288,0.0,1.0,95,0.00,,,0.00,WeatherCatV1.02B3,2013-06-17 12:58:00,
2013-06-17 08:03:00,76.6,75.1,29.99,WNW,288,0.0,0.0,95,0.00,,,0.00,WeatherCatV1.02B3,2013-06-17 13:03:00,
2013-06-17 08:08:00,76.9,75.0,29.99,WNW,288,0.0,0.0,94,0.00,,,0.00,WeatherCatV1.02B3,2013-06-17 13:08:00,
2013-06-17 08:13:00,77.3,75.4,29.99,WNW,288,0.0,0.0,94,0.00,,,0.00,WeatherCatV1.02B3,2013-06-17 13:13:00,
2013-06-17 08:18:00,77.6,75.4,29.99,WNW,288,0.0,0.0,93,0.00,,,0.00,WeatherCatV1.02B3,2013-06-17 13:18:00,
2013-06-17 08:23:00,78.0,75.5,29.99,WNW,288,0.0,1.0,92,0.00,,,0.00,WeatherCatV1.02B3,2013-06-17 13:23:00,
2013-06-17 08:29:00,78.5,76.0,29.99,WNW,288,0.0,0.0,92,0.00,,,0.00,WeatherCatV1.02B3,2013-06-17 13:29:00,
2013-06-17 08:34:00,78.9,76.0,29.99,WNW,288,1.0,1.0,91,0.00,,,0.00,WeatherCatV1.02B3,2013-06-17 13:34:00,
2013-06-17 08:39:00,79.3,75.8,29.99,WNW,288,0.0,1.0,89,0.00,,,0.00,WeatherCatV1.02B3,2013-06-17 13:39:00,
2013-06-17 08:44:00,79.9,76.0,29.99,NW,318,0.0,1.0,88,0.00,,,0.00,WeatherCatV1.02B3,2013-06-17 13:44:00,
2013-06-17 08:49:00,80.5,76.3,29.99,NW,318,0.0,1.0,87,0.00,,,0.00,WeatherCatV1.02B3,2013-06-17 13:49:00,
2013-06-17 08:54:00,81.0,76.8,29.99,NW,318,1.0,1.0,87,0.00,,,0.00,WeatherCatV1.02B3,2013-06-17 13:54:00,
2013-06-17 08:59:00,81.4,76.4,29.99,NW,322,0.0,1.0,85,0.00,,,0.00,WeatherCatV1.02B3,2013-06-17 13:59:00,
2013-06-17 09:04:00,81.7,76.7,29.99,NW,322,0.0,1.0,85,0.00,,,0.00,WeatherCatV1.02B3,2013-06-17 14:04:00,
2013-06-17 09:09:00,81.9,76.6,30.00,NW,321,0.0,2.0,84,0.00,,,0.00,WeatherCatV1.02B3,2013-06-17 14:09:00,
2013-06-17 09:14:00,82.1,76.4,30.00,NW,321,1.0,1.0,83,0.00,,,0.00,WeatherCatV1.02B3,2013-06-17 14:14:00,
2013-06-17 09:19:00,82.2,76.5,30.00,NW,321,1.0,1.0,83,0.00,,,0.00,WeatherCatV1.02B3,2013-06-17 14:19:00,
2013-06-17 09:24:00,82.5,76.8,30.00,NW,321,0.0,0.0,83,0.00,,,0.00,WeatherCatV1.02B3,2013-06-17 14:24:00,
2013-06-17 09:29:00,82.7,76.6,30.00,NW,321,1.0,1.0,82,0.00,,,0.00,WeatherCatV1.02B3,2013-06-17 14:29:00,
2013-06-17 09:34:00,82.9,76.8,30.00,NW,324,0.0,0.0,82,0.00,,,0.00,WeatherCatV1.02B3,2013-06-17 14:34:00,
2013-06-17 09:39:00,83.2,76.7,30.00,North,5,0.0,1.0,81,0.00,,,0.00,WeatherCatV1.02B3,2013-06-17 14:39:00,
2013-06-17 09:44:00,83.3,76.8,30.00,North,0,1.0,2.0,81,0.00,,,0.00,WeatherCatV1.02B3,2013-06-17 14:44:00,
2013-06-17 09:49:00,83.3,76.5,30.00,North,351,0.0,0.0,80,0.00,,,0.00,WeatherCatV1.02B3,2013-06-17 14:49:00,
2013-06-17 09:54:00,83.6,76.8,30.00,NNW,343,1.0,2.0,80,0.00,,,0.00,WeatherCatV1.02B3,2013-06-17 14:54:00,
2013-06-17 09:59:00,83.9,76.7,30.00,NNW,339,1.0,1.0,79,0.00,,,0.00,WeatherCatV1.02B3,2013-06-17 14:59:00,
2013-06-17 10:04:00,84.4,76.8,30.00,NNW,335,0.0,1.0,78,0.00,,,0.00,WeatherCatV1.02B3,2013-06-17 15:04:00,
2013-06-17 10:09:00,84.8,77.2,30.01,NNW,335,0.0,1.0,78,0.00,,,0.00,WeatherCatV1.02B3,2013-06-17 15:09:00,
2013-06-17 10:14:00,85.0,77.0,30.01,NNW,335,0.0,1.0,77,0.00,,,0.00,WeatherCatV1.02B3,2013-06-17 15:14:00,
2013-06-17 10:19:00,85.2,76.8,30.01,NNW,335,0.0,1.0,76,0.00,,,0.00,WeatherCatV1.02B3,2013-06-17 15:19:00,
2013-06-17 10:24:00,85.5,77.4,30.01,NNW,335,0.0,0.0,77,0.00,,,0.00,WeatherCatV1.02B3,2013-06-17 15:24:00,
2013-06-17 10:29:00,85.6,77.5,30.01,NW,324,0.0,2.0,77,0.00,,,0.00,WeatherCatV1.02B3,2013-06-17 15:29:00,
2013-06-17 10:34:00,85.7,76.8,30.01,NW,324,0.0,1.0,75,0.00,,,0.00,WeatherCatV1.02B3,2013-06-17 15:34:00,
2013-06-17 10:39:00,86.0,77.5,30.02,North,355,0.0,0.0,76,0.00,,,0.00,WeatherCatV1.02B3,2013-06-17 15:39:00,
2013-06-17 10:44:00,86.0,77.1,30.02,NNW,330,0.0,1.0,75,0.00,,,0.00,WeatherCatV1.02B3,2013-06-17 15:44:00,
2013-06-17 10:49:00,85.8,76.5,30.02,NNW,330,0.0,1.0,74,0.00,,,0.00,WeatherCatV1.02B3,2013-06-17 15:49:00,
2013-06-17 10:54:00,86.0,77.5,30.02,NNW,330,0.0,0.0,76,0.00,,,0.00,WeatherCatV1.02B3,2013-06-17 15:54:00,
2013-06-17 10:59:00,86.1,76.8,30.02,NNW,330,0.0,0.0,74,0.00,,,0.00,WeatherCatV1.02B3,2013-06-17 15:59:00,
2013-06-17 11:04:00,86.2,76.5,30.01,NW,326,0.0,2.0,73,0.00,,,0.00,WeatherCatV1.02B3,2013-06-17 16:04:00,
2013-06-17 11:09:00,86.2,77.3,30.02,NNW,330,0.0,2.0,75,0.00,,,0.00,WeatherCatV1.02B3,2013-06-17 16:09:00,
2013-06-17 11:14:00,85.9,77.0,30.02,NNW,330,0.0,0.0,75,0.00,,,0.00,WeatherCatV1.02B3,2013-06-17 16:14:00,
2013-06-17 11:19:00,85.5,76.6,30.02,NNW,330,0.0,0.0,75,0.00,,,0.00,WeatherCatV1.02B3,2013-06-17 16:19:00,
2013-06-17 11:24:00,85.4,77.3,30.02,NNW,330,0.0,0.0,77,0.00,,,0.00,WeatherCatV1.02B3,2013-06-17 16:24:00,
2013-06-17 11:29:00,85.5,77.8,30.01,NNW,330,1.0,1.0,78,0.00,,,0.00,WeatherCatV1.02B3,2013-06-17 16:29:00,
2013-06-17 11:34:00,86.0,78.3,30.01,NNW,330,0.0,0.0,78,0.00,,,0.00,WeatherCatV1.02B3,2013-06-17 16:34:00,
2013-06-17 11:39:00,86.2,77.7,30.01,SW,232,0.0,2.0,76,0.00,,,0.00,WeatherCatV1.02B3,2013-06-17 16:39:00,
2013-06-17 11:44:00,86.2,77.7,30.01,WSW,254,0.0,1.0,76,0.00,,,0.00,WeatherCatV1.02B3,2013-06-17 16:44:00,
2013-06-17 11:49:00,86.5,77.6,30.00,NW,319,1.0,3.0,75,0.00,,,0.00,WeatherCatV1.02B3,2013-06-17 16:49:00,
2013-06-17 11:54:00,87.0,77.3,30.00,NW,311,0.0,4.0,73,0.00,,,0.00,WeatherCatV1.02B3,2013-06-17 16:54:00,
2013-06-17 11:59:00,87.4,77.7,30.00,WSW,252,0.0,3.0,73,0.00,,,0.00,WeatherCatV1.02B3,2013-06-17 16:59:00,
2013-06-17 12:04:00,87.6,77.0,30.00,NW,305,2.0,4.0,71,0.00,,,0.00,WeatherCatV1.02B3,2013-06-17 17:04:00,
2013-06-17 12:09:00,87.7,77.9,30.00,WSW,254,0.0,2.0,73,0.00,,,0.00,WeatherCatV1.02B3,2013-06-17 17:09:00,
2013-06-17 12:14:00,88.0,77.0,30.00,West,270,2.0,3.0,70,0.00,,,0.00,WeatherCatV1.02B3,2013-06-17 17:14:00,
2013-06-17 12:19:00,87.9,76.4,29.99,NW,319,0.0,3.0,69,0.00,,,0.00,WeatherCatV1.02B3,2013-06-17 17:19:00,
2013-06-17 12:24:00,88.0,76.5,29.99,NW,304,0.0,4.0,69,0.00,,,0.00,WeatherCatV1.02B3,2013-06-17 17:24:00,
2013-06-17 12:29:00,88.1,77.5,29.99,NW,322,0.0,1.0,71,0.00,,,0.00,WeatherCatV1.02B3,2013-06-17 17:29:00,
2013-06-17 12:34:00,88.4,77.3,29.99,NW,322,1.0,1.0,70,0.00,,,0.00,WeatherCatV1.02B3,2013-06-17 17:34:00,
2013-06-17 12:39:00,88.3,76.8,29.99,NW,320,0.0,3.0,69,0.00,,,0.00,WeatherCatV1.02B3,2013-06-17 17:39:00,
2013-06-17 12:44:00,88.6,75.8,29.99,WSW,247,3.0,3.0,66,0.00,,,0.00,WeatherCatV1.02B3,2013-06-17 17:44:00,
2013-06-17 12:49:00,88.7,74.9,29.98,WNW,285,3.0,5.0,64,0.00,,,0.00,WeatherCatV1.02B3,2013-06-17 17:49:00,
2013-06-17 12:54:00,88.7,74.0,29.98,WNW,300,0.0,5.0,62,0.00,,,0.00,WeatherCatV1.02B3,2013-06-17 17:54:00,
2013-06-17 12:59:00,88.9,75.1,29.98,WNW,282,0.0,2.0,64,0.00,,,0.00,WeatherCatV1.02B3,2013-06-17 17:59:00,
2013-06-17 13:04:00,89.2,74.9,29.98,NW,312,2.0,3.0,63,0.00,,,0.00,WeatherCatV1.02B3,2013-06-17 18:04:00,
2013-06-17 13:09:00,89.6,74.8,29.98,NW,324,0.0,2.0,62,0.00,,,0.00,WeatherCatV1.02B3,2013-06-17 18:09:00,
2013-06-17 13:14:00,89.8,74.5,29.97,NW,324,0.0,3.0,61,0.00,,,0.00,WeatherCatV1.02B3,2013-06-17 18:14:00,
2013-06-17 13:19:00,90.0,75.7,29.98,West,279,1.0,3.0,63,0.00,,,0.00,WeatherCatV1.02B3,2013-06-17 18:19:00,
2013-06-17 13:24:00,89.9,76.1,29.97,WNW,286,1.0,1.0,64,0.00,,,0.00,WeatherCatV1.02B3,2013-06-17 18:24:00,
2013-06-17 13:29:00,89.7,75.4,29.97,WNW,294,1.0,3.0,63,0.00,,,0.00,WeatherCatV1.02B3,2013-06-17 18:29:00,
2013-06-17 13:34:00,89.9,76.1,29.97,WNW,298,2.0,4.0,64,0.00,,,0.00,WeatherCatV1.02B3,2013-06-17 18:34:00,
2013-06-17 13:39:00,89.2,75.9,29.97,SSW,207,5.0,6.0,65,0.00,,,0.00,WeatherCatV1.02B3,2013-06-17 18:39:00,
2013-06-17 13:44:00,89.3,74.0,29.97,NW,325,0.0,6.0,61,0.00,,,0.00,WeatherCatV1.02B3,2013-06-17 18:44:00,
2013-06-17 13:49:00,89.4,74.1,29.96,NNW,334,0.0,5.0,61,0.00,,,0.00,WeatherCatV1.02B3,2013-06-17 18:49:00,
2013-06-17 13:54:00,89.2,74.4,29.96,NW,306,0.0,1.0,62,0.00,,,0.00,WeatherCatV1.02B3,2013-06-17 18:54:00,
2013-06-17 13:59:00,89.1,74.8,29.95,West,280,1.0,1.0,63,0.00,,,0.00,WeatherCatV1.02B3,2013-06-17 18:59:00,
2013-06-17 14:04:00,89.3,74.0,29.95,NW,309,0.0,2.0,61,0.00,,,0.00,WeatherCatV1.02B3,2013-06-17 19:04:00,
2013-06-17 14:09:00,88.9,75.1,29.95,WNW,283,0.0,2.0,64,0.00,,,0.00,WeatherCatV1.02B3,2013-06-17 19:09:00,
2013-06-17 14:14:00,89.0,74.7,29.94,West,269,0.0,0.0,63,0.00,,,0.00,WeatherCatV1.02B3,2013-06-17 19:14:00,
2013-06-17 14:19:00,89.5,74.7,29.95,WNW,296,2.0,3.0,62,0.00,,,0.00,WeatherCatV1.02B3,2013-06-17 19:19:00,
2013-06-17 14:24:00,89.4,73.1,29.94,NW,318,0.0,4.0,59,0.00,,,0.00,WeatherCatV1.02B3,2013-06-17 19:24:00,
2013-06-17 14:29:00,89.5,75.2,29.94,WNW,302,0.0,1.0,63,0.00,,,0.00,WeatherCatV1.02B3,2013-06-17 19:29:00,
2013-06-17 14:34:00,89.2,75.9,29.94,WNW,284,1.0,1.0,65,0.00,,,0.00,WeatherCatV1.02B3,2013-06-17 19:34:00,
2013-06-17 14:39:00,89.8,76.0,29.94,NW,317,0.0,3.0,64,0.00,,,0.00,WeatherCatV1.02B3,2013-06-17 19:39:00,
2013-06-17 14:44:00,90.0,74.7,29.94,NW,306,0.0,3.0,61,0.00,,,0.00,WeatherCatV1.02B3,2013-06-17 19:44:00,
2013-06-17 14:49:00,89.9,74.6,29.94,NW,316,2.0,4.0,61,0.00,,,0.00,WeatherCatV1.02B3,2013-06-17 19:49:00,
2013-06-17 14:54:00,89.3,74.5,29.94,NW,316,0.0,3.0,62,0.00,,,0.00,WeatherCatV1.02B3,2013-06-17 19:54:00,
2013-06-17 14:59:00,88.9,74.6,29.94,NNW,327,0.0,1.0,63,0.00,,,0.00,WeatherCatV1.02B3,2013-06-17 19:59:00,
2013-06-17 15:04:00,89.5,75.7,29.94,NW,325,0.0,3.0,64,0.00,,,0.00,WeatherCatV1.02B3,2013-06-17 20:04:00,
2013-06-17 15:09:00,90.2,74.9,29.94,WNW,292,1.0,3.0,61,0.00,,,0.00,WeatherCatV1.02B3,2013-06-17 20:09:00,
2013-06-17 15:14:00,90.2,75.4,29.94,NW,319,0.0,1.0,62,0.00,,,0.00,WeatherCatV1.02B3,2013-06-17 20:14:00,
2013-06-17 15:19:00,89.9,74.1,29.94,WNW,296,1.0,2.0,60,0.00,,,0.00,WeatherCatV1.02B3,2013-06-17 20:19:00,
2013-06-17 15:24:00,90.0,73.7,29.95,NW,317,1.0,5.0,59,0.00,,,0.00,WeatherCatV1.02B3,2013-06-17 20:24:00,
2013-06-17 15:29:00,89.9,75.1,29.95,NW,317,0.0,1.0,62,0.00,,,0.00,WeatherCatV1.02B3,2013-06-17 20:29:00,
2013-06-17 15:34:00,90.7,75.8,29.95,WSW,238,1.0,2.0,62,0.00,,,0.00,WeatherCatV1.02B3,2013-06-17 20:34:00,
2013-06-17 15:39:00,91.5,74.6,29.96,West,281,0.0,4.0,58,0.00,,,0.00,WeatherCatV1.02B3,2013-06-17 20:39:00,
2013-06-17 15:44:00,91.2,73.8,29.95,WNW,286,0.0,2.0,57,0.00,,,0.00,WeatherCatV1.02B3,2013-06-17 20:44:00,
2013-06-17 15:49:00,91.9,73.9,29.95,NW,316,2.0,3.0,56,0.00,,,0.00,WeatherCatV1.02B3,2013-06-17 20:49:00,
2013-06-17 15:54:00,91.8,73.3,29.95,NW,316,3.0,3.0,55,0.00,,,0.00,WeatherCatV1.02B3,2013-06-17 20:54:00,
2013-06-17 15:59:00,91.8,73.3,29.94,WNW,302,1.0,4.0,55,0.00,,,0.00,WeatherCatV1.02B3,2013-06-17 20:59:00,
2013-06-17 16:04:00,91.4,73.5,29.94,WNW,288,1.0,1.0,56,0.00,,,0.00,WeatherCatV1.02B3,2013-06-17 21:04:00,
2013-06-17 16:09:00,90.9,73.0,29.94,WNW,294,0.0,7.0,56,0.00,,,0.00,WeatherCatV1.02B3,2013-06-17 21:09:00,
2013-06-17 16:14:00,90.4,70.9,29.94,NW,309,0.0,4.0,53,0.00,,,0.00,WeatherCatV1.02B3,2013-06-17 21:14:00,
2013-06-17 16:19:00,89.8,71.4,29.94,NW,310,1.0,4.0,55,0.00,,,0.00,WeatherCatV1.02B3,2013-06-17 21:19:00,
2013-06-17 16:24:00,89.5,72.2,29.94,SW,225,1.0,4.0,57,0.00,,,0.00,WeatherCatV1.02B3,2013-06-17 21:24:00,
2013-06-17 16:29:00,89.4,71.1,29.94,WNW,302,0.0,1.0,55,0.00,,,0.00,WeatherCatV1.02B3,2013-06-17 21:29:00,
2013-06-17 16:34:00,89.0,71.8,29.94,NW,305,0.0,3.0,57,0.00,,,0.00,WeatherCatV1.02B3,2013-06-17 21:34:00,
2013-06-17 16:39:00,88.8,71.6,29.94,ENE,67,0.0,1.0,57,0.00,,,0.00,WeatherCatV1.02B3,2013-06-17 21:39:00,
2013-06-17 16:44:00,88.5,71.3,29.94,NW,316,1.0,4.0,57,0.00,,,0.00,WeatherCatV1.02B3,2013-06-17 21:44:00,
2013-06-17 16:49:00,88.3,71.6,29.94,NW,316,0.0,0.0,58,0.00,,,0.00,WeatherCatV1.02B3,2013-06-17 21:49:00,
2013-06-17 16:54:00,88.3,71.6,29.94,NNW,329,0.0,1.0,58,0.00,,,0.00,WeatherCatV1.02B3,2013-06-17 21:54:00,
2013-06-17 16:59:00,88.7,72.0,29.93,WNW,295,0.0,0.0,58,0.00,,,0.00,WeatherCatV1.02B3,2013-06-17 21:59:00,
2013-06-17 17:04:00,89.5,72.2,29.93,WNW,296,0.0,1.0,57,0.00,,,0.00,WeatherCatV1.02B3,2013-06-17 22:04:00,
2013-06-17 17:09:00,89.7,71.9,29.93,WNW,298,0.0,3.0,56,0.00,,,0.00,WeatherCatV1.02B3,2013-06-17 22:09:00,
2013-06-17 17:14:00,89.4,72.6,29.93,WNW,298,0.0,1.0,58,0.00,,,0.00,WeatherCatV1.02B3,2013-06-17 22:14:00,
2013-06-17 17:19:00,89.2,73.0,29.93,WNW,298,1.0,1.0,59,0.00,,,0.00,WeatherCatV1.02B3,2013-06-17 22:19:00,
2013-06-17 17:24:00,89.0,72.8,29.92,WNW,298,0.0,1.0,59,0.00,,,0.00,WeatherCatV1.02B3,2013-06-17 22:24:00,
2013-06-17 17:29:00,88.9,72.7,29.93,WNW,298,0.0,0.0,59,0.00,,,0.00,WeatherCatV1.02B3,2013-06-17 22:29:00,
2013-06-17 17:34:00,88.8,73.6,29.92,WNW,298,0.0,0.0,61,0.00,,,0.00,WeatherCatV1.02B3,2013-06-17 22:34:00,
2013-06-17 17:39:00,88.5,72.8,29.92,WNW,292,0.0,1.0,60,0.00,,,0.00,WeatherCatV1.02B3,2013-06-17 22:39:00,
2013-06-17 17:44:00,88.2,72.5,29.92,WNW,299,0.0,1.0,60,0.00,,,0.00,WeatherCatV1.02B3,2013-06-17 22:44:00,
2013-06-17 17:49:00,87.9,73.2,29.92,WNW,299,0.0,0.0,62,0.00,,,0.00,WeatherCatV1.02B3,2013-06-17 22:49:00,
2013-06-17 17:54:00,87.8,73.1,29.92,WNW,288,0.0,1.0,62,0.00,,,0.00,WeatherCatV1.02B3,2013-06-17 22:54:00,
2013-06-17 17:59:00,87.6,72.5,29.92,WNW,297,0.0,3.0,61,0.00,,,0.00,WeatherCatV1.02B3,2013-06-17 22:59:00,
2013-06-17 18:04:00,87.6,74.3,29.92,WNW,292,0.0,0.0,65,0.00,,,0.00,WeatherCatV1.02B3,2013-06-17 23:04:00,
2013-06-17 18:09:00,87.5,73.8,29.92,WNW,292,0.0,1.0,64,0.00,,,0.00,WeatherCatV1.02B3,2013-06-17 23:09:00,
2013-06-17 18:14:00,87.5,73.8,29.92,WNW,300,0.0,0.0,64,0.00,,,0.00,WeatherCatV1.02B3,2013-06-17 23:14:00,
2013-06-17 18:19:00,87.4,73.2,29.92,NW,309,0.0,0.0,63,0.00,,,0.00,WeatherCatV1.02B3,2013-06-17 23:19:00,
2013-06-17 18:24:00,87.5,73.3,29.91,West,269,0.0,1.0,63,0.00,,,0.00,WeatherCatV1.02B3,2013-06-17 23:24:00,
2013-06-17 18:29:00,87.6,73.9,29.91,West,269,0.0,0.0,64,0.00,,,0.00,WeatherCatV1.02B3,2013-06-17 23:29:00,
2013-06-17 18:34:00,87.6,73.4,29.91,West,269,0.0,0.0,63,0.00,,,0.00,WeatherCatV1.02B3,2013-06-17 23:34:00,
2013-06-17 18:39:00,87.5,73.8,29.91,SW,232,0.0,2.0,64,0.00,,,0.00,WeatherCatV1.02B3,2013-06-17 23:39:00,
2013-06-17 18:44:00,87.5,73.8,29.91,West,279,0.0,1.0,64,0.00,,,0.00,WeatherCatV1.02B3,2013-06-17 23:44:00,
2013-06-17 18:49:00,87.3,74.1,29.91,West,275,0.0,0.0,65,0.00,,,0.00,WeatherCatV1.02B3,2013-06-17 23:49:00,
2013-06-17 18:54:00,87.1,74.3,29.91,West,275,0.0,0.0,66,0.00,,,0.00,WeatherCatV1.02B3,2013-06-17 23:54:00,
2013-06-17 18:59:00,86.8,73.6,29.91,West,275,0.0,0.0,65,0.00,,,0.00,WeatherCatV1.02B3,2013-06-17 23:59:00,
2013-06-17 19:04:00,86.6,73.4,29.91,WNW,282,0.0,1.0,65,0.00,,,0.00,WeatherCatV1.02B3,2013-06-18 00:04:00,
2013-06-17 19:09:00,86.4,73.2,29.91,WNW,288,0.0,1.0,65,0.00,,,0.00,WeatherCatV1.02B3,2013-06-18 00:09:00,
2013-06-17 19:14:00,86.3,73.1,29.91,WNW,288,0.0,1.0,65,0.00,,,0.00,WeatherCatV1.02B3,2013-06-18 00:14:00,
2013-06-17 19:19:00,86.3,74.0,29.91,WNW,288,0.0,0.0,67,0.00,,,0.00,WeatherCatV1.02B3,2013-06-18 00:19:00,
2013-06-17 19:24:00,86.1,73.4,29.91,WNW,288,1.0,1.0,66,0.00,,,0.00,WeatherCatV1.02B3,2013-06-18 00:24:00,
2013-06-17 19:29:00,85.9,73.6,29.91,WNW,288,0.0,0.0,67,0.00,,,0.00,WeatherCatV1.02B3,2013-06-18 00:29:00,
2013-06-17 19:34:00,85.7,73.9,29.91,WNW,288,0.0,0.0,68,0.00,,,0.00,WeatherCatV1.02B3,2013-06-18 00:34:00,
2013-06-17 19:39:00,85.4,73.6,29.91,WNW,288,0.0,0.0,68,0.00,,,0.00,WeatherCatV1.02B3,2013-06-18 00:39:00,
2013-06-17 19:44:00,85.2,73.4,29.92,WNW,288,0.0,1.0,68,0.00,,,0.00,WeatherCatV1.02B3,2013-06-18 00:44:00,
2013-06-17 19:49:00,85.0,73.2,29.92,WNW,288,0.0,0.0,68,0.00,,,0.00,WeatherCatV1.02B3,2013-06-18 00:49:00,
2013-06-17 19:54:00,84.9,74.0,29.92,WNW,288,0.0,0.0,70,0.00,,,0.00,WeatherCatV1.02B3,2013-06-18 00:54:00,
2013-06-17 19:59:00,84.8,73.5,29.92,WNW,288,0.0,0.0,69,0.00,,,0.00,WeatherCatV1.02B3,2013-06-18 00:59:00,
2013-06-17 20:04:00,84.7,73.8,29.92,WNW,288,0.0,0.0,70,0.00,,,0.00,WeatherCatV1.02B3,2013-06-18 01:04:00,
2013-06-17 20:09:00,84.6,74.6,29.92,WNW,288,0.0,0.0,72,0.00,,,0.00,WeatherCatV1.02B3,2013-06-18 01:09:00,
2013-06-17 20:14:00,84.4,73.5,29.92,WNW,288,0.0,0.0,70,0.00,,,0.00,WeatherCatV1.02B3,2013-06-18 01:14:00,
2013-06-17 20:19:00,84.2,73.7,29.92,WNW,288,0.0,1.0,71,0.00,,,0.00,WeatherCatV1.02B3,2013-06-18 01:19:00,
2013-06-17 20:24:00,84.1,73.2,29.92,WNW,287,0.0,0.0,70,0.00,,,0.00,WeatherCatV1.02B3,2013-06-18 01:24:00,
2013-06-17 20:29:00,84.0,74.0,29.92,WNW,287,0.0,0.0,72,0.00,,,0.00,WeatherCatV1.02B3,2013-06-18 01:29:00,
2013-06-17 20:34:00,83.9,73.5,29.93,WNW,287,0.0,0.0,71,0.00,,,0.00,WeatherCatV1.02B3,2013-06-18 01:34:00,
2013-06-17 20:39:00,83.8,73.8,29.93,WNW,287,0.0,0.0,72,0.00,,,0.00,WeatherCatV1.02B3,2013-06-18 01:39:00,
2013-06-17 20:44:00,83.6,74.0,29.93,WNW,287,0.0,0.0,73,0.00,,,0.00,WeatherCatV1.02B3,2013-06-18 01:44:00,
2013-06-17 20:49:00,83.4,73.4,29.93,WNW,287,0.0,0.0,72,0.00,,,0.00,WeatherCatV1.02B3,2013-06-18 01:49:00,
2013-06-17 20:54:00,83.2,73.2,29.93,WNW,287,0.0,0.0,72,0.00,,,0.00,WeatherCatV1.02B3,2013-06-18 01:54:00,
2013-06-17 20:59:00,83.2,73.6,29.93,WNW,287,0.0,1.0,73,0.00,,,0.00,WeatherCatV1.02B3,2013-06-18 01:59:00,
2013-06-17 21:04:00,83.1,73.5,29.93,WNW,287,0.0,0.0,73,0.00,,,0.00,WeatherCatV1.02B3,2013-06-18 02:04:00,
2013-06-17 21:09:00,83.0,73.8,29.93,WNW,287,0.0,0.0,74,0.00,,,0.00,WeatherCatV1.02B3,2013-06-18 02:09:00,
2013-06-17 21:14:00,82.8,73.6,29.93,WNW,287,0.0,0.0,74,0.00,,,0.00,WeatherCatV1.02B3,2013-06-18 02:14:00,
2013-06-17 21:19:00,82.7,73.5,29.93,WNW,287,0.0,1.0,74,0.00,,,0.00,WeatherCatV1.02B3,2013-06-18 02:19:00,
2013-06-17 21:24:00,82.5,73.8,29.93,WNW,287,0.0,0.0,75,0.00,,,0.00,WeatherCatV1.02B3,2013-06-18 02:24:00,
2013-06-17 21:29:00,82.4,73.7,29.93,WNW,287,0.0,0.0,75,0.00,,,0.00,WeatherCatV1.02B3,2013-06-18 02:29:00,
2013-06-17 21:34:00,82.3,74.0,29.93,WNW,287,0.0,0.0,76,0.00,,,0.00,WeatherCatV1.02B3,2013-06-18 02:34:00,
2013-06-17 21:39:00,82.1,73.8,29.93,WNW,287,0.0,0.0,76,0.00,,,0.00,WeatherCatV1.02B3,2013-06-18 02:39:00,
2013-06-17 21:44:00,81.9,73.6,29.93,WNW,287,0.0,0.0,76,0.00,,,0.00,WeatherCatV1.02B3,2013-06-18 02:44:00,
2013-06-17 21:49:00,81.8,73.9,29.94,WNW,287,0.0,0.0,77,0.00,,,0.00,WeatherCatV1.02B3,2013-06-18 02:49:00,
2013-06-17 21:54:00,81.6,73.7,29.94,WNW,287,0.0,0.0,77,0.00,,,0.00,WeatherCatV1.02B3,2013-06-18 02:54:00,
2013-06-17 21:59:00,81.5,73.6,29.94,WNW,287,0.0,0.0,77,0.00,,,0.00,WeatherCatV1.02B3,2013-06-18 02:59:00,
2013-06-17 22:04:00,81.3,73.8,29.94,WNW,287,0.0,0.0,78,0.00,,,0.00,WeatherCatV1.02B3,2013-06-18 03:04:00,
2013-06-17 22:09:00,81.3,73.8,29.94,WNW,287,0.0,0.0,78,0.00,,,0.00,WeatherCatV1.02B3,2013-06-18 03:09:00,
2013-06-17 22:14:00,81.2,74.0,29.94,WNW,287,0.0,0.0,79,0.00,,,0.00,WeatherCatV1.02B3,2013-06-18 03:14:00,
2013-06-17 22:19:00,81.1,73.9,29.94,WNW,287,0.0,0.0,79,0.00,,,0.00,WeatherCatV1.02B3,2013-06-18 03:19:00,
2013-06-17 22:24:00,80.9,73.8,29.94,WNW,287,0.0,0.0,79,0.00,,,0.00,WeatherCatV1.02B3,2013-06-18 03:24:00,
2013-06-17 22:29:00,80.8,74.0,29.94,WNW,287,0.0,0.0,80,0.00,,,0.00,WeatherCatV1.02B3,2013-06-18 03:29:00,
2013-06-17 22:34:00,80.6,73.8,29.94,WNW,287,0.0,0.0,80,0.00,,,0.00,WeatherCatV1.02B3,2013-06-18 03:34:00,
2013-06-17 22:39:00,80.5,73.7,29.94,WNW,287,0.0,0.0,80,0.00,,,0.00,WeatherCatV1.02B3,2013-06-18 03:39:00,
2013-06-17 22:44:00,80.4,74.0,29.94,WNW,287,0.0,0.0,81,0.00,,,0.00,WeatherCatV1.02B3,2013-06-18 03:44:00,
2013-06-17 22:49:00,80.3,73.9,29.94,WNW,287,0.0,0.0,81,0.00,,,0.00,WeatherCatV1.02B3,2013-06-18 03:49:00,
2013-06-17 22:54:00,80.2,73.8,29.94,WNW,287,0.0,0.0,81,0.00,,,0.00,WeatherCatV1.02B3,2013-06-18 03:54:00,
2013-06-17 22:59:00,80.2,73.8,29.94,WNW,287,0.0,0.0,81,0.00,,,0.00,WeatherCatV1.02B3,2013-06-18 03:59:00,
2013-06-17 23:01:00,80.2,73.8,29.94,WNW,287,0.0,0.0,81,0.00,,,0.00,WeatherCatV1.02B3,2013-06-18 04:01:00,
2013-06-17 23:06:00,80.1,74.1,29.94,WNW,287,0.0,0.0,82,0.00,,,0.00,WeatherCatV1.02B3,2013-06-18 04:06:00,
2013-06-17 23:11:00,80.0,74.0,29.94,WNW,287,0.0,0.0,82,0.00,,,0.00,WeatherCatV1.02B3,2013-06-18 04:11:00,
2013-06-17 23:16:00,79.9,73.9,29.94,WNW,287,0.0,0.0,82,0.00,,,0.00,WeatherCatV1.02B3,2013-06-18 04:16:00,
2013-06-17 23:21:00,79.8,73.8,29.94,WNW,287,0.0,0.0,82,0.00,,,0.00,WeatherCatV1.02B3,2013-06-18 04:21:00,
2013-06-17 23:26:00,79.8,73.8,29.94,WNW,287,0.0,0.0,82,0.00,,,0.00,WeatherCatV1.02B3,2013-06-18 04:26:00,
2013-06-17 23:31:00,79.7,73.7,29.93,WNW,287,0.0,0.0,82,0.00,,,0.00,WeatherCatV1.02B3,2013-06-18 04:31:00,
2013-06-17 23:36:00,79.7,74.1,29.93,WNW,287,0.0,0.0,83,0.00,,,0.00,WeatherCatV1.02B3,2013-06-18 04:36:00,
2013-06-17 23:41:00,79.6,74.0,29.93,WNW,287,0.0,0.0,83,0.00,,,0.00,WeatherCatV1.02B3,2013-06-18 04:41:00,
2013-06-17 23:46:00,79.5,73.9,29.93,WNW,287,0.0,0.0,83,0.00,,,0.00,WeatherCatV1.02B3,2013-06-18 04:46:00,
2013-06-17 23:51:00,79.5,73.9,29.93,WNW,287,0.0,0.0,83,0.00,,,0.00,WeatherCatV1.02B3,2013-06-18 04:51:00,
2013-06-17 23:56:00,79.5,73.9,29.93,WNW,287,0.0,0.0,83,0.00,,,0.00,WeatherCatV1.02B3,2013-06-18 04:56:00,